RH
18 18 17 17 17 17 16 16 16 15 15 14 14 13 13 13 12 12 12 12 12 12 12 12 11 11 10 9 10 9 10 9 9 8 7 8 8 8 8 8 8 8 8 8 8 8 8 8 7 8 7 7 7 8 7 7 7 7 10 7 12 19 21 37 37 33 42 48 52 48 49 41 40 55 60 70 72 63 64 56 40 35 41 41 35 34 37 39
19 18 18 17 17 17 16 16 16 15 15 15 14 14 13 13 12 12 12 12 12 11 12 11 11 11 11 10 10 9 9 10 9 9 8 7 7 7 8 8 8 8 8 8 8 8 7 8 8 7 7 8 7 7 7 7 7 6 9 11 14 18 20 30 29 26 32 44 54 51 53 45 39 50 53 63 73 69 65 59 44 34 40 42 36 34 36 40
19 19 18 18 17 17 16 16 16 15 15 15 15 15 14 14 13 13 12 12 11 11 11 11 11 11 11 11 10 10 9 10 10 10 9 8 8 7 7 7 7 8 8 8 8 8 8 7 8 8 7 8 7 7 7 7 7 6 10 13 14 13 13 14 15 21 26 43 56 50 52 50 43 50 51 55 68 71 66 62 49 35 38 41 38 34 35 39
20 20 19 19 18 17 17 15 15 15 15 14 14 14 14 14 13 13 12 12 12 11 11 10 11 10 10 10 10 11 9 9 10 9 10 9 9 8 7 7 7 7 7 8 8 7 8 8 8 8 8 8 8 7 7 7 7 7 8 11 12 9 9 8 10 17 21 41 57 48 48 49 45 52 51 48 63 73 69 65 53 37 37 39 37 35 35 38
21 21 20 20 20 19 18 17 16 15 15 14 14 14 13 14 13 13 13 13 12 11 12 11 11 10 10 10 10 10 10 10 9 9 9 9 10 9 8 7 7 7 7 7 7 8 8 8 8 8 8 8 8 7 7 7 7 7 7 7 9 8 9 8 7 13 17 39 63 55 50 51 45 52 55 51 65 77 71 67 58 42 37 36 35 36 35 37
23 23 23 22 21 20 19 18 17 16 15 14 14 14 13 13 13 13 12 12 12 12 11 11 11 11 10 10 10 10 9 10 9 9 9 9 9 9 9 8 7 7 7 7 6 7 7 7 8 8 8 8 7 8 7 8 7 7 7 7 8 7 9 8 7 11 11 33 68 64 53 55 47 52 62 59 63 68 68 67 60 47 39 35 33 35 35 36
25 25 25 24 23 22 21 19 19 18 17 16 15 14 14 14 13 13 12 12 11 11 11 11 11 10 10 10 10 10 10 10 9 9 9 9 9 9 9 9 9 8 7 7 7 7 7 7 8 8 8 8 8 8 7 8 8 7 7 7 7 7 7 8 6 9 7 23 68 74 57 58 49 50 63 63 59 60 67 66 59 51 42 36 31 34 34 35
29 28 27 26 25 23 22 21 20 19 18 18 17 16 15 14 14 13 12 12 11 11 11 10 10 10 10 10 10 10 10 10 9 9 9 9 9 8 9 9 9 9 8 7 7 7 7 7 7 8 8 8 8 8 8 8 8 8 7 7 7 7 6 7 6 8 7 15 61 81 63 59 54 54 62 64 59 58 66 62 58 55 45 38 30 31 34 34
31 30 28 26 25 24 23 22 21 20 19 19 18 17 17 16 15 15 14 13 11 11 11 10 10 10 10 9 10 10 10 10 9 9 9 9 9 9 9 9 9 8 8 8 8 8 8 8 7 8 7 7 8 7 8 8 8 8 7 8 7 7 6 7 6 7 7 9 46 75 64 61 58 57 64 63 57 55 61 58 57 57 47 41 31 29 33 32
33 30 29 27 25 24 23 22 21 20 19 19 18 18 17 17 16 16 14 14 12 12 11 11 10 10 9 9 9 9 9 9 9 9 9 9 8 9 8 8 9 8 8 8 8 8 8 9 7 8 7 7 7 7 8 7 8 8 7 8 6 8 6 6 6 5 8 6 26 54 59 64 64 69 80 75 61 54 57 53 53 58 49 43 33 27 31 31
33 31 29 27 25 24 23 22 21 20 19 19 18 18 18 17 17 16 15 14 13 12 11 11 11 10 10 9 9 9 9 9 9 9 9 9 8 8 9 8 8 8 8 8 8 8 8 9 8 8 7 7 7 7 8 7 8 8 7 8 7 8 6 6 7 4 8 5 13 32 47 66 73 80 91 85 72 60 55 48 50 59 51 44 36 27 29 30
33 31 29 28 26 25 24 22 21 20 19 18 18 18 17 17 16 15 15 14 13 13 12 12 11 11 11 10 9 8 9 8 8 9 8 8 8 8 8 8 8 8 8 8 8 8 8 9 8 8 8 7 7 6 7 7 8 8 7 8 7 8 7 6 7 5 7 5 8 17 35 65 78 86 93 89 88 75 58 45 46 56 52 46 39 28 29 29
32 31 30 29 28 26 25 23 21 20 19 18 17 17 16 15 15 15 14 14 13 12 12 12 11 11 11 11 10 9 9 8 8 8 8 8 8 8 8 8 8 8 8 8 8 8 8 8 8 8 8 7 7 7 7 7 7 9 8 8 8 8 8 7 6 6 6 5 7 9 28 65 79 86 92 89 94 85 66 48 39 49 51 47 41 30 29 28
33 32 31 30 29 27 25 23 21 21 20 19 18 17 16 15 15 14 14 13 13 12 11 11 11 11 11 11 10 9 9 8 8 8 7 8 7 7 8 7 8 7 8 8 8 8 8 8 8 7 8 7 8 7 7 7 7 8 8 8 8 8 8 10 8 7 7 6 6 6 31 73 83 84 82 77 90 91 73 52 37 43 48 48 43 33 31 29
34 33 32 30 29 27 25 24 23 23 22 21 20 18 17 16 16 15 14 13 12 12 11 11 11 11 11 11 10 9 9 8 8 8 7 7 8 7 7 7 7 7 7 8 7 8 8 8 8 8 7 7 7 7 7 7 7 7 8 7 8 8 8 10 9 8 7 6 7 6 36 83 94 93 81 67 89 95 74 56 40 40 46 49 46 36 32 31
35 34 33 31 29 27 26 26 26 25 24 22 21 20 19 18 17 16 15 14 13 12 11 11 11 10 11 10 10 9 9 9 8 8 7 7 7 7 7 7 7 7 7 7 7 7 8 7 8 8 7 7 7 7 7 7 7 7 7 7 7 8 8 10 10 10 8 6 7 4 39 91 98 100 87 63 86 97 74 61 46 40 47 50 49 40 34 32
37 35 33 31 29 28 28 28 28 27 26 24 23 21 21 19 18 17 15 15 14 13 12 11 11 10 11 10 10 10 9 9 8 8 7 7 7 7 7 7 7 7 7 7 7 7 7 7 7 8 7 8 7 7 6 7 7 7 7 8 8 8 7 9 10 12 9 6 9 3 37 94 100 100 92 63 82 96 71 61 50 43 50 52 52 46 38 34
38 36 34 32 30 29 30 31 30 29 27 26 25 23 23 21 19 17 16 15 14 13 13 12 11 11 11 11 10 10 9 9 8 8 8 7 7 7 7 7 7 7 7 6 7 6 7 7 7 7 7 7 7 7 6 6 7 7 8 8 8 7 7 8 8 14 14 7 9 4 25 83 102 101 92 63 75 89 67 57 52 47 53 54 55 51 42 36
38 37 35 33 31 31 32 33 32 30 29 28 27 26 25 23 20 18 16 15 14 13 13 12 12 12 11 11 11 11 10 9 9 8 8 8 8 8 7 8 7 7 7 7 7 6 6 6 6 7 7 7 7 7 6 6 6 6 8 8 8 7 7 8 7 12 18 10 10 6 9 63 103 102 91 67 67 76 60 51 47 47 55 53 52 53 47 39
38 37 35 33 32 33 34 34 32 31 31 30 29 28 26 24 20 17 16 15 14 13 13 13 13 12 12 12 12 12 11 10 10 9 9 8 8 8 8 8 8 8 8 7 7 7 7 7 6 7 6 7 7 7 7 6 6 6 7 8 8 8 6 8 8 8 15 12 11 9 2 43 97 103 91 70 60 63 52 44 43 43 51 51 50 53 51 44
37 36 35 34 34 36 36 35 33 32 32 32 31 29 26 23 19 17 16 15 15 14 14 13 13 13 13 13 12 12 12 11 11 10 10 9 9 9 9 9 8 8 8 8 8 7 8 7 7 7 6 7 6 6 7 6 7 6 6 8 7 9 7 6 9 7 11 12 11 12 2 28 87 106 90 65 51 55 46 39 40 40 45 49 51 53 55 51
38 37 36 36 36 37 37 35 34 33 34 33 32 29 25 21 18 17 16 15 15 15 14 14 14 14 13 13 13 12 13 12 12 12 11 11 11 10 10 10 9 9 9 8 9 8 8 8 8 8 7 7 7 6 7 6 6 6 6 7 6 8 9 7 10 7 10 13 12 14 3 18 77 108 91 60 45 50 48 40 39 39 40 46 52 54 56 58
38 37 37 37 38 38 37 36 35 35 35 33 31 28 23 19 18 17 17 17 16 15 16 15 14 14 13 13 13 13 13 13 13 13 12 12 12 12 11 11 11 10 10 10 10 9 9 9 8 9 8 8 7 6 7 6 6 6 5 7 7 7 8 10 12 8 9 12 11 13 6 11 64 107 97 69 53 49 50 45 39 42 43 42 50 55 54 59
39 38 38 39 39 39 38 37 37 37 36 33 29 25 21 19 19 18 17 17 17 17 17 16 16 15 14 14 13 14 14 14 14 13 13 13 13 13 13 13 12 12 11 11 11 10 10 10 9 9 9 8 8 7 7 6 5 6 5 6 7 6 7 9 10 8 7 11 10 12 9 6 46 100 103 84 74 55 49 53 41 40 45 40 47 56 53 57
39 38 39 40 40 40 39 38 39 39 36 32 29 24 21 20 19 19 18 17 18 18 18 17 17 16 15 15 14 15 15 14 15 15 15 15 14 14 13 13 13 13 13 12 12 11 10 11 10 9 9 8 9 8 7 7 6 6 5 5 6 6 6 7 8 9 8 10 10 11 12 4 26 84 105 96 92 69 55 62 50 43 46 40 48 59 53 53
39 39 40 41 41 41 40 40 41 40 35 32 28 24 22 22 20 19 18 18 18 18 18 18 18 18 17 16 15 15 16 16 16 15 15 15 15 15 15 15 15 14 15 13 13 13 11 11 10 9 10 9 9 9 8 8 7 6 5 5 6 5 6 7 6 10 11 11 10 9 13 7 11 60 101 102 97 86 75 73 62 59 56 43 49 59 54 51
39 40 41 42 42 41 41 42 42 39 35 31 27 23 23 23 21 19 18 18 18 18 19 19 20 19 18 18 17 17 17 16 16 17 16 17 17 19 20 20 20 19 18 17 16 15 13 12 12 10 10 10 10 10 9 9 8 7 6 5 5 5 5 7 6 8 10 10 11 9 11 12 5 32 85 105 99 94 96 89 75 76 69 47 47 56 55 52
41 41 42 43 42 42 43 44 44 39 34 31 26 23 24 23 21 19 18 18 18 18 19 20 20 20 19 19 18 18 18 17 17 18 18 20 22 25 27 25 25 24 23 21 19 18 16 14 13 12 11 11 10 10 9 9 9 8 8 5 4 5 5 6 6 7 8 8 11 10 8 13 8 11 50 93 105 98 102 99 81 81 76 50 44 51 53 55
42 42 43 43 43 44 45 46 44 38 33 30 26 23 24 24 22 19 18 18 18 18 20 20 20 21 20 19 20 20 20 19 19 21 23 26 29 31 31 29 27 26 24 23 20 19 18 16 15 13 12 11 10 10 10 9 9 8 8 7 5 5 4 5 7 6 7 7 8 10 7 10 13 8 17 53 85 93 102 104 81 81 85 56 43 47 49 56
43 44 44 44 44 46 47 46 42 36 32 30 26 23 24 24 22 19 18 17 18 19 19 20 21 21 21 20 20 20 20 22 25 28 30 31 33 34 33 31 28 25 23 22 20 19 18 16 16 14 13 12 11 11 10 9 10 8 8 8 6 6 5 5 6 5 7 8 7 9 8 8 11 12 10 17 37 58 85 101 85 84 94 68 47 48 46 56
45 45 45 45 46 47 47 45 39 33 31 30 26 23 24 24 21 19 18 18 19 18 17 19 20 21 21 20 20 21 25 29 31 33 34 35 36 35 33 30 27 25 22 20 19 18 17 16 15 14 13 12 11 11 10 9 9 9 8 9 8 7 6 5 5 6 6 7 8 8 8 8 8 10 13 11 18 36 63 88 89 89 97 76 55 50 45 54
46 46 46 47 48 47 45 41 35 30 30 29 26 24 24 23 21 19 18 18 18 17 17 18 19 20 20 20 22 25 30 33 36 38 39 37 36 34 32 30 27 25 22 20 19 17 16 15 14 14 12 12 12 10 10 9 9 9 8 8 8 7 7 6 5 6 6 6 8 8 8 9 8 10 13 12 18 29 43 63 78 90 100 83 63 56 48 54
46 47 48 49 48 46 42 36 31 30 30 29 26 25 24 23 21 19 18 18 19 19 18 18 19 20 21 22 25 30 35 41 45 45 43 38 36 34 33 30 28 26 23 21 20 18 17 16 14 13 12 11 12 11 10 9 8 9 8 8 8 8 7 7 6 6 6 7 7 7 9 8 7 12 16 16 16 26 47 61 60 72 91 87 74 66 55 56
48 50 49 48 46 43 38 32 30 30 30 28 25 25 25 23 21 19 18 19 20 21 21 22 23 25 28 31 35 40 44 48 49 46 43 41 38 36 34 32 29 28 25 23 23 21 19 18 15 14 13 11 11 11 10 10 9 8 8 8 7 8 9 7 7 7 5 6 7 6 8 8 8 13 18 21 18 27 68 84 58 51 71 79 78 75 63 59
50 51 50 47 44 39 34 31 30 31 30 28 25 25 24 22 21 19 20 24 27 30 32 34 37 38 41 43 45 46 47 48 47 46 46 44 42 39 36 34 33 31 29 26 26 25 23 22 19 17 16 13 11 10 10 10 9 8 8 8 7 7 9 8 7 8 6 6 6 7 9 8 8 11 15 26 29 38 81 102 72 52 60 69 78 83 74 62
52 51 49 45 40 35 32 30 30 31 30 28 25 25 25 22 21 21 26 34 41 44 45 46 46 46 47 46 47 48 49 50 50 49 50 48 46 44 40 38 36 34 33 30 29 29 28 26 23 21 19 16 14 12 10 10 9 10 9 8 7 7 8 9 8 8 8 5 6 10 13 9 8 14 18 29 38 47 84 110 88 61 56 65 80 89 80 62
52 51 47 42 36 32 31 31 31 30 29 28 26 25 24 23 23 27 35 45 51 51 49 48 48 49 48 48 49 52 54 56 57 56 55 53 51 49 45 42 40 38 38 35 34 33 30 26 24 22 21 19 18 15 12 11 9 10 11 8 7 6 7 9 9 8 8 6 6 9 12 10 12 20 22 30 39 45 76 109 99 72 57 59 79 96 85 61
51 49 44 38 34 31 31 31 31 30 29 28 26 25 25 24 27 34 44 53 55 53 51 50 51 52 53 54 55 57 59 61 63 63 61 59 56 53 49 46 44 44 43 39 38 35 29 25 24 23 22 20 21 18 14 14 11 10 11 9 8 8 7 8 8 9 9 8 8 6 9 10 11 17 19 29 42 48 75 106 100 82 62 47 69 99 92 69
48 46 42 37 32 31 31 32 32 31 29 27 26 25 25 26 32 41 51 57 57 56 54 53 54 56 59 60 61 62 63 64 66 67 66 64 61 58 53 50 49 49 47 42 40 35 28 26 24 24 23 21 22 20 16 15 14 12 12 10 10 9 9 8 7 9 10 10 10 7 7 9 11 17 15 21 37 47 72 101 98 89 74 45 58 91 91 82
45 42 39 35 32 31 30 31 32 30 28 26 25 25 24 26 34 45 54 58 58 58 55 52 52 56 61 64 65 66 67 68 70 71 71 69 67 65 61 56 54 53 50 44 39 32 28 28 26 25 25 23 23 22 18 16 15 14 13 11 10 9 10 10 7 9 10 10 11 9 6 9 17 23 14 13 32 38 51 78 86 90 83 50 50 76 81 87
41 38 36 33 30 30 30 30 30 29 27 25 23 24 24 25 31 42 52 55 56 55 52 49 48 52 60 66 67 68 69 71 72 74 76 77 76 74 67 61 60 57 50 45 37 31 30 31 28 27 27 25 25 23 19 16 14 15 15 13 12 10 11 11 9 10 10 10 11 9 7 9 18 25 16 10 29 36 32 44 60 78 82 56 46 63 74 88
36 34 33 31 29 29 28 29 29 28 25 24 23 23 23 23 27 36 45 49 50 49 46 44 44 50 61 67 69 69 70 73 76 78 83 84 84 81 71 64 63 58 50 43 35 31 33 35 30 28 29 28 27 27 22 17 14 14 15 13 14 12 11 13 12 10 11 11 11 9 8 10 14 23 20 9 19 34 29 26 38 57 70 64 53 57 71 91
31 31 29 28 28 28 27 28 28 26 24 23 22 22 22 22 24 28 35 39 41 40 39 40 45 54 64 69 70 70 73 78 80 83 89 91 90 84 72 65 64 58 48 40 34 33 35 38 34 30 31 30 28 28 25 20 15 16 18 15 15 15 12 13 13 10 11 12 13 11 7 10 16 19 20 13 14 23 22 19 23 31 47 62 61 55 66 91
28 28 28 28 28 28 27 27 27 25 25 23 22 22 21 21 23 25 29 32 33 35 38 44 53 62 68 69 71 74 78 81 83 85 90 93 93 83 68 64 63 55 45 38 34 35 38 41 38 35 37 35 32 30 26 23 17 16 21 21 21 21 16 13 12 11 13 11 12 14 8 10 17 15 12 12 15 18 16 16 18 18 28 45 55 53 58 81
29 28 29 30 30 30 29 28 27 26 25 24 24 24 22 22 24 25 27 30 34 41 49 57 63 69 71 72 76 82 84 83 84 85 86 86 87 79 65 62 60 50 43 38 35 37 41 43 42 41 42 40 38 33 28 26 20 16 19 22 26 31 28 22 15 10 14 13 11 13 11 13 18 16 11 10 16 19 17 16 15 18 27 31 37 48 55 73
38 35 35 35 36 37 35 32 29 28 27 27 28 29 29 30 32 35 39 43 49 57 63 68 70 72 75 78 84 89 87 83 80 80 79 76 76 73 64 63 60 49 42 40 38 41 44 45 45 45 46 43 39 35 30 27 23 18 17 18 27 38 38 33 25 15 12 15 14 12 12 14 14 11 11 13 17 18 18 19 13 18 45 48 31 31 42 64
54 51 49 47 46 47 47 44 40 36 32 30 31 34 37 41 44 49 53 57 64 69 71 74 75 76 82 86 89 90 87 81 72 67 67 67 68 68 65 65 60 51 47 46 43 46 48 47 45 47 48 45 39 36 33 28 24 19 17 17 25 37 37 33 32 26 16 13 14 15 15 16 12 10 12 15 20 18 16 22 13 13 53 84 65 36 27 51
62 63 63 61 60 59 58 57 55 53 49 44 39 37 37 41 46 50 56 61 66 70 73 77 78 82 89 93 92 89 84 77 66 59 59 61 64 67 66 66 61 54 55 55 51 52 52 48 46 48 50 47 41 36 33 30 25 20 18 17 19 29 37 36 30 28 26 17 12 16 20 18 13 14 14 12 18 20 10 17 32 34 53 91 103 76 43 52
63 66 68 67 66 66 63 62 61 62 64 64 62 57 52 50 50 50 53 57 62 68 74 78 81 88 95 97 93 87 80 71 61 58 61 63 66 67 67 68 64 59 62 64 61 60 58 51 48 51 52 49 44 38 34 32 27 20 18 17 15 20 32 36 30 27 31 27 17 16 22 22 18 18 20 13 13 21 9 9 49 71 62 71 97 100 80 76
70 70 73 72 71 70 66 63 60 59 61 64 68 71 71 71 74 74 71 68 68 71 76 80 87 96 100 98 90 83 76 66 57 60 65 66 67 66 66 68 65 62 67 70 68 67 64 57 53 54 55 53 48 41 35 33 29 21 17 16 17 19 21 26 28 27 29 33 30 23 20 24 22 17 22 16 8 19 16 6 38 73 67 59 74 91 99 96
78 78 80 81 82 81 77 72 67 63 64 65 66 70 72 75 82 89 92 93 91 88 88 90 94 101 104 97 87 79 71 61 57 62 63 60 61 62 63 65 65 67 72 72 71 71 69 64 60 59 57 54 51 45 36 34 31 24 17 15 16 20 22 23 24 23 27 33 36 32 23 25 27 19 19 18 8 17 21 11 34 73 78 69 73 89 106 105
75 78 80 84 90 93 92 87 78 70 71 73 73 76 78 80 85 89 94 102 105 103 101 99 98 102 102 94 84 77 67 57 58 61 56 50 52 56 62 68 70 72 72 68 66 68 72 71 67 63 60 55 54 49 40 36 33 26 22 22 19 16 19 24 22 21 26 28 32 36 30 27 30 23 18 18 14 16 15 10 32 72 89 84 80 90 105 103
Wind_Speed
11 12 13 13 14 14 15 15 16 16 17 17 18 19 19 20 21 22 23 24 24 25 26 28 29 31 32 34 35 36 36 37 38 39 41 41 42 42 43 43 43 42 41 41 40 39 37 36 34 33 31 30 29 28 27 25 24 22 20 17 14 13 18 20 16 12 9 7 6 4 4 5 6 7 8 9 11 14 17 19 20 22 24 25 26 26 26 25
13 13 14 14 15 16 16 17 18 18 19 19 19 20 20 21 22 22 23 24 24 25 26 27 28 29 30 32 33 35 36 37 37 38 39 40 41 42 43 43 43 43 42 42 41 40 39 38 37 35 34 33 32 30 29 27 25 24 21 19 17 18 20 20 17 15 11 7 6 4 4 5 5 6 7 8 9 12 16 18 19 20 23 24 25 25 25 25
14 14 15 15 16 17 18 18 19 20 20 21 21 21 22 22 23 23 24 24 25 25 26 26 27 28 29 30 31 33 35 36 37 37 38 39 40 41 42 43 43 43 43 43 42 42 41 40 39 37 36 35 34 33 31 29 27 25 24 22 21 21 21 19 18 16 13 8 6 5 4 4 4 5 5 7 8 9 13 17 17 19 21 22 23 24 24 24
15 16 16 17 18 19 19 20 20 21 21 22 22 23 24 24 25 26 26 26 26 26 26 26 27 27 28 29 30 31 32 34 36 37 37 38 39 40 42 42 42 43 43 43 43 42 42 41 40 39 38 37 36 35 33 32 30 28 26 25 24 23 21 20 19 17 15 10 8 7 5 4 3 3 4 6 7 7 11 15 16 17 19 20 22 23 23 24
16 17 18 19 20 20 21 21 22 22 23 23 23 24 25 26 27 27 28 28 28 28 27 27 27 28 28 29 29 30 31 32 34 35 36 37 38 39 41 41 42 43 43 43 43 43 43 42 41 41 41 40 38 37 35 34 32 30 29 27 26 25 23 21 20 18 16 12 9 8 6 5 4 2 3 4 5 5 8 13 15 15 17 18 20 22 22 23
18 19 20 21 22 22 23 23 24 24 24 24 24 25 26 27 28 29 29 30 30 30 30 29 29 29 29 29 29 30 30 31 32 33 35 36 37 38 39 40 41 42 42 43 43 43 43 43 42 42 42 41 40 39 37 36 35 33 31 29 28 27 25 23 21 19 18 14 11 9 9 8 5 4 4 4 3 3 5 10 13 14 15 16 18 21 21 22
20 21 22 23 23 24 24 25 25 26 26 26 26 27 27 28 29 30 30 31 31 31 32 31 31 31 30 30 30 30 30 30 31 32 33 34 35 37 38 39 40 42 42 42 42 42 42 43 43 43 43 43 42 40 39 38 37 35 33 32 30 28 27 25 23 21 19 17 13 10 10 9 7 5 5 4 3 2 3 8 11 12 13 14 16 19 20 21
22 23 24 24 25 25 26 26 27 27 27 28 28 29 29 30 30 31 32 32 32 33 33 33 33 33 32 32 31 31 31 31 31 31 32 33 34 35 36 38 39 41 42 42 42 41 42 42 42 43 44 44 43 42 41 40 39 38 36 34 32 30 29 27 25 23 21 19 16 12 11 11 9 7 6 6 4 2 1 5 9 10 11 12 14 17 19 20
24 25 25 26 26 27 27 28 28 28 29 29 30 31 31 32 32 33 33 34 34 34 34 34 34 34 34 33 33 33 32 32 32 31 31 32 33 33 34 36 38 39 41 41 41 41 41 42 43 44 44 44 44 43 43 42 41 40 38 36 34 32 31 29 27 25 22 21 20 16 12 11 10 8 7 8 6 3 2 2 6 8 9 9 12 15 18 19
26 27 27 28 28 28 29 29 29 30 30 31 31 32 33 34 34 35 35 35 35 35 35 35 35 35 35 35 34 34 34 33 33 33 32 33 33 33 34 35 36 38 39 40 40 40 41 42 43 44 44 45 45 44 44 43 42 41 40 38 36 34 33 31 29 27 24 24 23 19 14 12 11 9 9 10 9 5 4 2 3 6 7 7 9 13 16 17
28 29 30 30 30 30 30 30 31 31 31 31 32 33 34 35 36 37 37 37 37 36 36 36 36 36 36 36 36 36 35 35 35 35 34 34 34 34 34 35 35 36 37 39 39 39 40 42 43 43 44 46 46 45 44 44 43 42 41 39 38 36 35 33 31 29 27 26 25 22 18 14 12 11 13 14 11 8 7 5 1 4 5 5 7 10 14 16
30 31 32 32 32 32 32 31 31 31 31 31 32 32 33 34 35 36 37 38 38 37 37 36 36 36 37 37 37 37 36 36 36 36 36 36 36 35 35 35 35 35 36 37 38 38 39 41 43 43 44 46 47 46 44 44 44 43 42 40 39 38 37 35 33 32 30 28 27 24 20 16 13 14 16 16 14 11 9 8 3 1 4 4 5 8 12 15
32 32 33 33 33 33 33 32 32 32 32 32 32 32 33 33 34 35 36 37 37 37 37 37 36 36 37 37 38 37 37 37 37 37 37 37 37 37 37 37 36 36 36 37 37 37 38 40 42 43 45 46 47 46 45 45 44 43 42 41 41 40 39 37 36 34 32 30 28 26 22 18 16 18 19 18 17 15 12 10 6 1 2 3 4 6 10 12
33 34 34 35 34 34 34 33 33 33 33 32 32 33 32 33 33 34 35 36 36 36 36 36 36 36 36 37 38 38 37 37 37 38 38 38 38 38 38 38 38 38 38 38 38 38 38 39 41 42 44 46 47 47 46 45 45 44 43 42 42 42 40 39 38 37 35 32 30 27 23 20 19 21 21 21 20 17 14 12 8 3 2 2 3 5 8 10
35 35 35 35 35 35 34 34 34 34 34 34 33 33 33 32 32 33 33 34 35 35 35 35 35 35 35 36 37 37 37 37 37 37 38 38 39 39 39 39 40 40 40 40 40 39 39 39 40 42 44 45 46 47 47 46 46 45 44 43 43 42 42 41 41 39 37 34 32 29 25 22 22 24 24 23 22 19 15 14 11 5 3 3 3 4 6 8
36 36 36 36 35 35 35 35 36 36 35 35 34 33 32 32 32 31 32 32 33 33 34 34 33 33 34 35 36 37 37 37 37 37 38 38 39 39 40 40 41 41 42 42 41 41 40 41 41 42 43 44 46 46 46 46 46 46 45 44 44 44 44 43 42 40 39 37 34 31 27 24 24 26 26 24 22 21 18 17 13 8 5 4 3 4 5 7
36 36 36 36 36 36 36 36 37 37 36 35 34 33 32 31 31 30 30 30 30 31 32 32 32 32 33 34 35 36 36 37 37 37 37 38 38 39 40 40 41 42 42 43 43 43 43 43 43 43 43 44 45 46 46 46 46 46 45 45 45 45 45 44 42 41 41 39 37 35 31 27 26 27 26 25 24 23 21 19 15 10 7 5 4 4 5 6
36 36 36 36 37 36 36 37 37 37 36 35 34 33 32 31 30 29 28 28 28 29 29 30 31 31 32 33 33 34 35 36 36 37 37 37 38 38 39 39 40 41 42 43 43 44 44 45 45 44 44 44 45 46 46 45 45 46 46 47 47 47 46 45 45 44 43 42 40 39 36 31 28 28 27 27 27 25 23 21 18 13 10 9 7 6 6 6
37 37 37 38 37 37 37 37 37 37 35 34 33 33 32 31 29 28 27 26 26 26 27 28 29 30 30 31 32 33 34 35 36 36 36 36 37 37 38 38 39 40 41 42 43 44 45 45 46 46 46 46 46 47 46 45 46 46 46 47 48 47 47 46 47 46 44 44 43 42 40 34 31 31 30 29 30 28 25 24 20 16 14 13 11 8 7 7
37 38 38 38 38 37 38 37 37 36 34 34 33 32 32 30 29 27 25 24 24 24 25 26 27 28 29 30 30 31 32 33 34 35 35 36 36 36 37 37 37 38 39 40 41 43 44 45 46 47 48 49 49 48 47 46 46 46 45 47 48 48 48 47 48 48 47 46 45 44 43 39 34 33 34 33 33 31 28 26 23 19 17 16 13 11 8 8
37 38 38 38 38 38 38 37 36 35 34 33 33 32 31 29 27 26 24 23 22 23 23 24 25 26 27 28 29 30 31 32 33 33 34 34 35 35 35 36 36 37 38 39 40 41 42 44 45 47 48 50 50 50 50 48 47 46 46 46 47 49 50 49 49 49 49 48 48 47 46 43 38 36 37 37 35 33 31 29 26 23 20 18 16 13 11 9
38 39 39 39 38 38 37 36 35 34 34 33 32 32 30 28 26 24 23 22 21 21 21 22 23 24 25 26 28 28 29 30 31 32 33 33 34 34 34 35 35 36 37 38 39 40 41 43 44 45 47 49 51 52 52 51 50 48 47 46 47 49 51 50 50 50 51 50 50 49 48 46 42 39 40 40 37 35 33 31 30 26 23 21 18 17 15 12
39 39 39 39 38 38 37 36 34 34 33 33 32 31 29 27 25 23 21 20 19 19 19 20 21 22 23 25 26 27 27 28 29 30 31 31 32 33 33 34 34 35 36 37 38 39 40 41 42 44 47 49 51 53 54 54 53 51 49 47 47 49 51 51 51 51 52 52 51 51 50 49 46 42 42 42 39 38 36 34 33 29 25 24 21 19 18 15
39 39 39 38 38 37 36 35 34 34 34 33 32 29 28 26 24 22 20 18 18 18 18 19 20 21 21 23 24 24 25 26 27 27 28 29 30 30 31 32 33 34 35 36 38 39 39 41 42 44 46 48 50 52 54 55 55 53 51 49 48 49 51 52 52 52 53 53 53 53 53 52 50 46 43 44 43 41 39 37 35 33 29 26 24 21 20 18
39 39 38 38 37 36 35 34 34 34 34 33 31 28 27 25 23 21 19 17 17 17 17 17 18 19 20 21 22 22 22 23 24 24 25 26 26 27 28 29 30 31 33 35 36 37 38 40 42 44 46 48 49 51 53 54 55 55 54 51 49 50 50 51 53 54 54 55 55 55 55 55 54 50 46 46 46 44 42 40 38 35 32 28 27 25 23 21
39 38 38 37 36 35 35 35 35 35 34 33 30 27 25 24 22 20 18 17 17 16 16 16 17 18 18 19 19 19 20 21 21 22 22 22 23 24 25 26 28 29 31 33 34 36 37 39 41 43 45 46 48 50 52 54 55 56 55 53 52 51 50 51 53 55 57 57 56 57 58 57 56 54 51 47 46 46 44 42 40 38 35 31 30 29 25 23
39 38 37 36 35 34 35 35 35 35 34 32 29 26 24 22 21 19 18 17 17 16 15 15 16 17 17 17 17 17 18 18 18 19 19 20 20 21 22 24 26 27 29 31 32 34 36 37 39 41 43 45 47 49 51 53 55 56 56 56 54 51 50 51 53 56 58 58 57 58 59 59 58 58 56 50 47 48 47 45 43 41 38 35 33 32 28 25
38 37 35 34 34 34 35 35 36 35 33 31 27 25 23 21 20 19 18 17 16 15 15 15 15 16 16 15 15 15 16 16 16 17 17 17 18 19 21 23 25 27 28 30 31 33 35 36 38 40 42 44 46 48 50 53 55 56 57 57 54 52 52 53 53 55 58 58 59 60 60 61 60 61 61 55 49 48 48 47 46 45 42 39 36 34 31 28
37 35 34 34 34 34 35 36 36 35 33 30 26 24 21 20 19 19 17 16 16 15 14 14 14 15 15 14 13 14 15 15 15 16 15 16 17 19 21 24 25 27 28 30 32 33 34 36 38 40 41 43 45 47 49 52 53 55 57 57 55 54 54 54 54 55 56 58 60 61 61 62 63 63 63 60 54 51 49 48 48 48 45 41 39 37 33 30
36 34 33 33 34 35 36 36 36 35 32 29 26 23 20 19 18 18 16 15 14 14 13 13 13 14 14 13 12 12 13 13 14 14 15 16 18 21 23 25 26 28 29 31 32 33 35 36 38 40 41 42 44 46 48 50 52 54 56 56 57 56 54 55 56 55 54 57 61 63 63 64 65 65 63 61 59 57 53 51 50 49 47 44 42 39 36 33
35 33 33 34 35 35 36 36 36 34 31 27 25 22 19 17 17 17 15 13 13 13 11 10 11 12 12 12 11 11 11 12 13 15 16 18 20 22 25 26 27 29 30 31 33 34 35 37 39 40 41 43 44 46 48 49 50 52 54 56 57 57 56 56 57 57 56 58 61 63 64 64 65 66 63 60 60 59 56 54 53 51 49 48 45 43 40 37
34 33 33 34 35 35 35 36 35 32 29 26 24 21 18 17 16 15 13 11 12 11 9 8 9 10 11 10 10 10 10 12 14 16 18 20 21 23 26 27 29 30 31 32 33 34 35 37 39 40 42 43 45 47 48 48 50 51 52 55 57 58 58 57 58 60 60 60 61 62 63 64 65 65 63 61 60 58 56 57 57 55 52 50 48 46 43 40
34 33 34 35 35 35 35 34 32 30 27 24 23 20 18 16 15 14 12 10 10 10 8 7 7 8 9 9 9 9 11 13 16 18 20 22 23 25 27 29 30 32 33 33 34 35 35 37 38 39 41 44 45 48 49 49 50 51 53 55 56 57 58 58 59 61 62 64 63 61 63 65 65 63 62 62 61 57 56 57 59 59 55 52 50 48 46 43
34 34 35 36 35 35 34 32 30 28 26 23 21 19 17 16 14 13 11 9 8 8 6 6 6 7 8 8 9 10 12 15 17 20 22 24 25 27 28 30 32 33 34 35 35 36 36 37 38 39 41 43 45 48 50 51 51 52 54 55 55 56 58 59 60 62 64 66 63 60 62 65 65 63 61 62 61 60 57 58 61 61 57 55 53 50 48 45
35 36 36 36 35 34 32 30 28 27 25 23 21 19 17 16 14 13 11 8 7 7 7 7 7 8 9 10 11 12 14 17 19 21 24 26 27 29 30 32 33 34 36 36 35 35 35 35 36 37 39 41 44 46 50 52 53 54 55 56 55 56 58 60 61 63 65 66 63 61 63 65 65 65 63 62 62 61 60 60 62 62 58 58 56 52 49 47
36 36 36 35 34 32 30 28 27 25 24 22 21 19 17 15 14 13 11 9 9 9 9 9 9 10 11 12 13 15 17 19 22 24 26 28 30 31 32 33 34 35 36 35 34 33 32 32 33 34 35 38 41 45 48 51 54 55 56 58 57 56 59 61 63 64 64 65 64 63 64 65 65 65 64 63 62 61 63 62 62 63 60 59 58 55 52 49
37 36 36 35 33 31 29 28 26 25 23 22 21 19 17 16 15 14 13 12 12 12 11 10 10 12 13 15 16 17 19 21 24 26 28 30 32 33 34 34 34 34 34 33 31 30 29 29 30 30 31 33 37 41 45 48 51 55 58 61 60 58 61 63 64 65 64 65 66 67 69 69 67 66 65 64 62 62 66 66 64 64 63 61 59 57 54 52
37 36 36 34 32 29 28 27 26 24 23 22 21 19 18 17 16 16 15 14 14 13 13 12 13 14 15 17 18 20 21 23 26 28 30 32 33 34 35 34 33 32 31 29 27 27 27 26 27 27 27 28 30 35 39 43 47 52 57 61 62 62 63 65 66 66 66 66 67 71 75 73 70 70 69 67 64 64 70 70 66 65 65 63 61 59 56 53
37 36 35 33 30 29 28 27 26 24 23 22 21 19 19 20 19 18 17 16 16 15 15 15 16 16 18 19 20 22 23 25 27 29 31 33 34 35 35 34 31 29 28 27 25 24 25 25 25 25 24 23 24 28 33 38 43 48 53 60 65 66 67 69 69 70 71 70 70 74 77 74 70 70 70 69 68 69 73 73 69 66 66 64 62 60 57 55
38 36 34 32 29 28 27 26 25 24 23 22 21 20 21 22 22 21 19 18 18 18 18 18 19 19 20 22 23 24 26 27 29 31 33 34 34 35 34 33 30 28 27 25 23 22 23 24 24 23 22 21 20 23 27 33 40 45 51 57 63 67 71 73 74 74 74 74 75 78 78 76 73 71 70 71 72 72 75 75 73 69 66 65 64 61 58 57
38 35 33 31 28 27 25 24 24 23 22 22 21 20 21 24 25 24 22 21 20 20 21 21 21 22 23 24 25 26 28 30 31 32 34 34 35 35 34 31 28 27 25 24 22 22 22 24 24 22 21 21 20 21 22 28 36 43 48 54 60 66 72 75 77 78 78 78 79 79 78 78 77 74 72 73 74 73 74 77 75 71 68 66 65 63 60 58
36 34 32 29 26 25 24 23 22 21 21 21 20 20 21 24 26 25 24 23 23 23 23 23 23 24 25 26 28 29 30 32 33 34 34 34 35 35 33 30 27 26 25 22 21 21 21 23 24 21 20 21 21 22 22 25 31 38 45 51 56 63 69 74 79 82 82 81 82 81 79 80 79 76 74 75 76 74 74 77 76 72 70 68 66 65 62 60
33 32 29 27 24 23 22 21 21 20 20 20 19 20 21 23 25 25 24 25 25 24 24 24 24 26 27 27 29 31 32 33 34 35 35 35 35 34 31 28 25 24 23 21 20 21 21 23 24 22 21 22 22 21 23 23 27 34 41 46 52 60 67 73 79 84 84 84 85 84 82 81 79 77 76 75 74 74 72 74 75 73 70 70 68 67 65 62
30 29 27 25 23 22 21 20 19 19 20 19 19 19 20 21 23 23 24 25 25 25 25 25 26 27 28 29 30 32 33 35 36 36 35 35 34 33 29 25 24 24 22 21 20 20 22 23 24 22 22 24 24 23 23 22 24 31 36 40 47 55 64 71 76 81 84 86 88 87 84 83 80 78 78 76 73 73 72 72 74 73 72 72 70 68 68 65
28 27 27 25 24 22 21 20 19 19 20 19 19 20 20 20 22 22 23 25 25 26 26 26 27 27 29 30 31 33 35 36 37 36 35 34 32 30 26 23 23 23 22 21 20 21 22 24 24 23 22 24 26 26 25 23 21 27 33 38 44 49 57 65 72 78 83 85 88 89 86 85 81 78 78 77 74 73 72 72 73 71 70 73 73 70 69 69
29 28 27 26 25 23 22 21 20 20 21 21 21 21 22 22 23 23 24 26 26 27 27 27 28 28 29 31 32 33 35 36 37 36 34 31 29 27 25 23 23 23 21 21 21 21 23 24 24 24 24 24 25 27 27 25 21 24 31 37 44 48 53 60 66 74 81 85 88 89 88 87 82 79 80 79 75 73 72 71 71 69 66 69 75 74 71 71
31 30 30 29 27 26 26 24 23 22 23 23 24 24 24 25 25 26 26 27 28 28 28 28 29 29 30 31 32 34 36 36 35 32 30 27 25 24 24 23 24 24 22 22 22 22 23 24 24 23 24 24 25 27 28 28 23 22 29 35 43 48 51 57 63 69 77 84 88 88 87 87 83 80 82 81 75 74 73 69 67 68 65 61 70 79 77 74
35 34 33 32 31 30 30 29 28 27 26 27 27 28 28 28 29 29 29 30 30 30 30 30 30 30 31 32 33 34 36 35 32 28 25 24 23 24 24 25 26 25 24 24 23 23 24 25 24 24 24 24 25 27 28 29 26 21 25 32 40 45 48 54 60 65 72 80 87 87 86 87 84 80 81 83 79 75 75 70 62 64 67 61 63 74 79 78
39 38 37 37 36 35 35 34 33 32 31 31 32 32 32 32 32 32 32 33 33 32 32 32 31 31 32 32 33 34 34 33 29 25 24 23 24 25 25 26 27 26 25 25 24 24 25 25 24 24 24 24 25 27 28 30 28 21 22 29 36 43 48 51 53 59 66 73 82 86 85 84 85 83 81 84 84 77 76 75 63 60 70 69 62 67 75 79
38 38 39 39 39 38 38 38 38 37 36 36 36 36 36 36 35 35 35 35 35 35 34 33 32 32 33 33 33 34 33 30 25 23 23 24 25 26 26 27 28 27 25 25 25 24 25 26 24 24 24 24 25 27 28 30 29 22 20 25 31 39 47 50 50 56 64 68 73 82 85 83 84 85 83 84 86 80 76 77 68 61 70 73 66 66 72 78
35 35 36 36 37 38 38 38 39 38 37 37 38 39 39 39 39 39 38 38 38 37 37 35 33 33 33 33 33 32 30 27 23 23 25 26 26 27 27 27 27 26 25 25 25 24 25 26 24 24 24 23 24 26 27 29 30 23 18 22 28 35 43 48 51 55 62 66 69 74 82 85 85 87 86 85 87 83 77 77 73 67 72 75 71 66 66 71
33 32 31 31 31 32 33 34 34 33 33 33 34 35 36 37 39 40 40 40 40 39 38 37 34 33 34 33 32 31 28 25 22 24 26 26 26 26 25 25 25 24 24 24 24 24 25 25 24 24 24 23 23 25 27 29 30 25 18 20 25 33 40 46 50 54 60 66 68 69 78 87 88 88 89 87 88 88 86 87 85 76 72 75 76 70 62 66
Wind_Direction
250 250 251 252 253 254 255 256 256 255 254 253 252 250 249 249 248 248 247 246 246 246 245 245 244 243 242 241 240 239 238 239 240 240 239 238 237 236 236 235 236 236 236 237 236 237 237 237 236 236 235 235 235 235 234 232 232 232 231 228 223 229 238 242 248 249 247 265 277 288 308 331 3 7 20 25 30 42 39 35 36 36 35 33 34 33 30 30
256 256 256 257 257 257 258 258 258 258 258 258 257 256 255 253 251 250 249 248 246 245 245 245 244 244 243 242 241 240 239 239 239 240 240 239 238 237 236 236 236 235 236 236 237 237 236 237 236 236 236 235 235 234 234 232 232 231 230 229 222 224 232 238 245 246 243 251 256 266 287 308 347 358 13 28 33 43 40 34 34 37 37 34 33 33 29 29
262 263 264 263 264 263 262 261 260 260 260 259 259 259 258 257 256 254 252 250 248 247 246 245 244 244 244 243 242 241 240 240 239 239 240 240 240 239 238 236 236 235 235 235 236 237 236 236 236 236 235 235 234 234 234 233 231 229 228 229 224 223 230 235 240 242 240 238 235 243 256 281 324 344 360 26 36 44 44 35 33 35 38 35 33 33 29 27
269 270 271 271 271 270 268 267 265 263 262 261 261 261 260 259 258 257 256 253 251 249 247 246 244 244 243 243 243 242 241 240 240 240 239 240 240 240 239 238 236 236 235 234 235 236 237 236 236 236 235 235 234 234 234 233 231 229 227 227 226 226 229 232 236 239 238 233 226 232 233 248 283 318 338 16 37 44 49 40 32 33 37 36 34 34 30 26
277 277 277 277 276 275 274 273 271 268 266 265 263 263 262 261 260 259 258 256 254 252 250 248 246 245 244 243 243 242 241 241 240 240 240 239 240 240 240 239 238 237 236 235 234 234 236 236 236 236 236 235 234 234 233 233 232 230 228 227 227 227 228 230 233 235 236 230 224 226 224 231 242 262 309 351 20 36 53 47 35 31 36 36 34 35 31 26
283 283 282 280 279 278 277 276 275 273 271 269 267 265 264 263 261 260 259 258 256 255 253 250 248 246 245 244 243 242 242 241 241 240 240 240 240 240 240 240 240 238 237 236 235 234 234 236 236 236 236 236 235 234 233 233 232 230 228 227 227 227 226 228 230 232 232 229 221 220 221 223 230 230 260 305 346 21 51 52 41 31 35 35 35 37 33 26
287 286 284 283 281 280 278 277 276 275 274 272 270 268 267 265 264 262 260 259 257 256 254 253 251 249 247 245 244 243 242 241 241 240 240 240 240 240 240 241 240 240 238 237 236 234 234 234 235 236 235 235 234 234 233 232 231 231 229 227 226 226 225 226 228 229 229 226 217 216 222 221 221 226 239 270 301 356 40 54 47 34 34 35 36 39 36 28
290 289 287 286 284 282 281 278 277 276 275 274 272 271 269 268 267 265 262 260 258 256 255 254 252 251 249 247 245 244 243 242 241 240 240 240 240 240 240 240 240 241 240 238 237 235 234 234 234 235 235 235 234 234 233 232 231 230 229 227 226 225 224 225 225 226 225 224 215 211 223 222 218 224 235 256 273 292 360 52 52 38 33 36 38 43 41 32
293 292 291 290 288 286 284 282 280 278 276 275 274 273 271 270 269 267 265 262 260 257 256 255 253 252 250 248 246 245 244 243 242 241 240 240 240 239 239 240 240 241 240 239 238 236 235 234 234 234 235 235 234 233 233 232 231 230 229 228 226 225 224 224 224 224 222 222 217 212 223 225 219 226 236 251 262 265 280 28 57 46 33 37 41 47 46 36
296 295 295 294 292 291 289 287 284 282 280 277 276 275 273 272 271 269 267 265 262 259 257 255 254 253 251 249 247 246 245 243 242 242 241 240 239 239 239 239 239 240 240 240 239 237 236 235 234 234 234 235 234 233 233 233 231 230 229 228 227 225 224 224 223 223 221 221 219 215 222 224 219 226 237 245 252 253 255 291 55 56 37 39 46 53 54 43
297 298 297 296 295 295 293 292 290 287 284 282 280 278 276 274 272 271 269 267 264 261 259 257 255 253 252 250 248 246 245 244 243 242 241 241 240 239 239 238 239 239 240 240 239 238 237 236 235 234 234 234 234 233 233 233 232 231 229 228 227 225 224 224 223 222 220 220 219 216 220 222 216 222 235 240 244 245 248 266 349 65 42 46 53 59 63 53
299 299 299 299 299 299 298 296 295 293 290 288 285 282 279 277 275 273 271 268 266 264 261 259 256 254 252 250 248 246 245 244 243 242 241 241 241 240 239 238 238 239 239 240 239 239 238 237 236 235 233 234 234 233 232 232 232 231 229 228 227 225 223 222 222 222 219 219 219 216 217 219 213 221 234 238 240 241 241 254 258 75 49 58 67 68 73 64
300 301 301 301 302 302 301 300 299 298 296 294 290 287 283 280 278 275 272 270 267 265 263 261 258 255 252 249 248 247 245 244 243 242 241 240 240 240 240 239 239 238 238 239 238 238 238 238 237 236 234 233 233 233 231 231 231 230 229 227 226 226 223 222 221 221 219 218 218 215 212 214 213 218 228 234 238 239 236 244 250 219 62 80 88 79 83 75
301 301 302 303 303 303 303 303 303 303 301 298 295 291 288 285 281 278 275 272 269 267 264 261 259 255 252 249 248 247 245 244 243 242 241 240 240 240 240 239 239 239 238 238 238 237 237 237 238 237 236 234 233 233 231 230 230 230 229 227 226 225 224 222 220 220 219 217 217 213 207 211 215 217 223 229 234 236 231 234 243 228 115 110 116 95 94 89
301 302 303 304 305 305 305 306 306 306 304 301 299 296 293 289 285 281 277 274 270 268 265 262 259 256 252 249 248 247 246 245 244 242 241 240 240 239 239 239 239 239 238 238 237 237 237 237 238 238 237 236 234 233 231 230 229 229 228 227 226 225 223 222 219 218 218 216 215 210 204 209 215 217 221 225 229 231 225 226 234 227 170 147 142 118 108 103
301 302 304 305 306 306 307 308 308 307 305 304 302 300 297 293 288 284 279 275 271 268 265 263 259 256 253 250 248 246 246 245 244 243 241 240 240 239 239 238 238 238 238 238 238 237 237 237 238 238 238 238 236 235 232 230 229 228 228 227 226 224 222 222 220 218 217 216 215 208 200 205 211 214 217 220 222 221 219 221 226 222 185 169 160 141 130 117
301 303 304 305 306 307 309 310 309 308 307 306 305 303 300 297 292 287 282 277 272 268 265 262 259 256 253 251 248 246 246 245 245 244 242 241 240 239 239 239 238 238 238 238 238 238 237 237 237 238 239 239 238 236 233 231 230 229 227 227 226 224 222 221 220 218 216 215 214 207 199 199 206 211 212 214 216 213 215 219 220 214 191 181 182 165 151 137
301 303 304 305 307 308 310 310 310 309 309 308 307 306 303 299 295 291 285 280 273 268 263 260 258 255 252 250 248 246 245 245 245 244 243 242 241 241 240 239 239 238 238 238 238 238 238 238 238 238 239 240 240 239 235 232 229 227 226 225 225 224 222 220 219 218 216 214 213 209 202 198 205 211 209 209 212 210 214 220 218 210 195 191 193 183 166 157
301 302 304 305 307 309 310 310 310 310 310 310 309 307 305 301 298 293 288 282 275 269 263 259 256 253 251 249 247 245 244 244 243 243 242 242 242 242 241 241 240 239 238 238 237 237 237 238 238 238 239 240 240 240 237 233 230 227 225 225 225 224 222 220 218 217 216 213 212 210 204 199 203 208 206 208 212 211 215 222 219 210 202 198 198 192 179 169
301 303 304 306 308 310 310 310 310 310 311 311 310 309 306 303 299 295 289 283 276 270 264 259 255 252 250 248 246 244 243 242 242 243 242 243 243 243 242 242 241 240 239 238 238 237 237 237 237 237 238 239 239 240 239 235 232 228 225 224 224 224 222 219 218 217 216 214 212 211 206 200 201 203 204 210 214 213 216 222 221 213 208 205 202 198 189 179
302 303 304 306 308 310 310 310 310 311 312 312 311 310 307 304 301 297 291 285 277 271 264 259 254 251 248 246 245 243 242 242 241 242 242 243 243 243 243 243 242 241 240 239 238 237 237 236 236 236 237 238 239 240 240 237 234 230 227 224 223 223 222 220 218 216 216 215 211 210 207 202 199 199 204 212 216 215 216 221 222 217 213 208 204 203 197 188
302 303 304 306 308 309 309 310 310 312 312 312 312 311 308 305 301 297 292 286 279 271 265 259 254 250 247 246 245 244 243 242 241 241 242 243 244 244 244 244 243 243 242 241 240 239 238 237 236 236 236 237 238 239 240 238 236 232 228 225 223 222 221 219 218 216 215 215 212 210 207 203 199 197 204 213 215 215 216 218 221 217 215 212 205 204 204 196
301 302 304 307 308 308 309 310 311 312 313 313 312 311 309 305 302 298 293 287 280 273 266 260 254 250 247 246 245 245 244 243 242 242 242 242 243 244 244 245 245 244 244 243 242 241 239 238 237 236 235 235 236 236 238 238 237 234 230 226 223 222 221 219 218 216 215 215 213 211 208 204 200 197 203 210 212 213 214 215 218 216 213 214 209 205 206 202
301 302 305 306 307 308 308 309 311 313 314 313 313 312 309 306 303 298 293 288 281 274 267 261 255 252 249 247 246 245 245 245 245 244 244 244 245 245 245 246 246 246 245 245 244 243 241 240 238 237 236 235 235 235 236 238 237 236 232 227 224 223 221 219 217 216 215 215 213 212 209 206 202 198 201 208 209 209 212 213 217 216 211 212 212 208 207 204
300 302 304 306 306 307 308 310 312 314 314 314 313 312 310 307 303 298 293 287 281 275 267 260 256 253 250 248 247 246 246 246 246 246 247 247 247 248 248 248 248 247 247 246 246 244 243 242 240 238 237 236 236 235 236 237 237 237 234 229 225 224 222 220 218 216 215 215 213 212 210 207 204 200 200 207 208 207 209 211 215 216 211 209 213 212 207 203
299 302 303 304 305 306 308 310 312 313 314 313 312 311 310 306 302 297 292 287 281 274 266 260 256 253 250 249 248 246 246 245 246 247 247 248 249 250 251 251 251 251 250 249 248 247 245 244 242 240 239 238 236 235 235 235 236 236 236 232 227 224 222 221 219 216 216 215 213 212 212 209 206 202 201 203 206 206 207 209 212 214 210 207 213 215 209 202
299 301 302 303 304 306 308 310 312 313 313 311 310 309 308 305 300 294 291 286 280 274 267 260 255 253 251 250 249 248 246 245 246 246 247 248 250 251 252 253 253 254 254 254 253 251 249 247 245 243 241 239 238 236 234 234 234 235 235 233 229 224 222 222 220 218 217 215 213 212 212 211 208 205 203 201 203 206 207 208 209 212 210 206 211 216 211 204
299 300 301 302 304 305 307 309 311 312 311 309 308 307 306 303 297 293 290 285 279 273 266 259 254 253 251 249 249 250 250 249 249 249 248 249 251 254 256 256 256 256 257 257 256 255 254 251 249 246 244 242 240 237 235 234 233 233 234 234 230 225 222 222 221 220 218 215 214 213 212 212 210 209 206 202 202 205 207 207 209 211 210 206 209 214 213 207
298 299 300 302 303 305 307 309 310 310 309 307 305 305 304 299 295 292 288 284 278 271 263 258 254 252 251 247 246 247 250 251 251 252 252 253 256 260 262 262 261 261 261 260 259 257 256 255 253 250 247 245 243 240 237 235 233 231 232 233 231 226 222 221 221 221 219 217 215 214 213 213 212 211 209 206 205 207 207 206 208 211 211 208 208 212 214 212
296 298 300 302 303 305 307 308 309 309 307 304 302 302 300 296 293 290 287 284 279 269 260 255 252 250 249 245 243 243 246 247 249 253 257 260 264 266 268 269 268 266 265 264 262 260 258 256 254 253 250 247 245 243 240 238 234 232 231 231 231 228 223 220 221 221 220 219 217 215 213 213 213 213 211 208 209 211 211 208 208 211 211 209 209 210 214 215
295 297 299 301 302 304 307 308 309 307 305 301 298 298 296 291 289 286 285 283 277 268 259 252 248 246 244 241 239 239 241 246 252 258 263 266 270 272 274 275 274 272 270 268 266 263 260 257 255 253 251 249 247 245 243 240 237 233 231 229 229 228 225 221 220 219 219 220 219 216 214 214 214 214 212 210 210 212 212 210 210 211 211 210 209 210 213 216
295 297 299 300 302 304 307 308 308 306 302 297 295 295 291 287 284 281 281 279 274 267 258 250 243 240 239 235 231 233 241 252 261 267 270 272 274 277 279 281 281 280 277 275 272 269 265 261 257 254 251 248 247 246 243 241 238 235 232 229 227 226 225 221 219 218 218 219 220 217 215 215 215 214 212 211 211 212 213 213 213 212 211 210 209 210 212 215
294 297 298 300 302 305 307 308 307 304 299 294 292 291 286 281 278 275 275 274 270 263 253 244 237 235 236 233 230 236 249 261 269 274 276 279 280 282 284 286 287 286 285 283 280 278 274 268 263 258 253 248 245 244 243 241 239 236 233 230 226 225 225 222 220 218 217 217 217 216 216 217 215 213 212 211 210 211 211 213 215 214 212 212 211 210 211 213
294 296 298 300 302 305 307 307 305 302 296 290 288 286 280 275 270 268 267 264 259 254 246 237 232 235 240 245 248 254 261 268 273 278 283 285 287 288 290 291 292 292 290 289 287 285 281 276 270 264 258 252 245 242 241 240 238 236 235 232 226 223 223 223 221 219 218 217 216 214 216 217 215 213 212 211 210 210 207 211 216 216 214 214 213 211 210 211
294 296 298 300 302 305 306 305 304 300 293 288 285 281 274 268 263 259 255 248 243 243 244 244 245 249 253 259 264 268 272 277 282 286 290 292 293 294 295 296 296 295 293 291 290 287 283 279 274 269 263 257 250 244 240 238 236 235 234 233 228 223 221 221 221 220 219 218 215 214 216 217 215 213 212 210 210 209 204 207 215 216 214 215 214 212 209 210
294 296 298 300 302 303 303 303 302 298 292 286 282 275 267 261 255 248 243 239 240 245 250 255 261 265 268 271 275 279 283 287 291 294 296 297 298 298 298 298 298 296 294 291 289 286 281 277 274 270 265 260 255 248 242 237 234 232 231 231 229 224 220 219 220 220 220 217 215 214 215 216 215 213 212 210 210 208 204 205 212 215 214 213 214 212 210 210
293 295 297 299 300 301 301 301 299 296 290 284 280 271 259 252 247 240 236 239 246 253 260 266 271 274 277 281 284 287 291 294 297 299 300 300 300 300 300 299 298 295 293 290 288 284 279 276 274 271 267 263 259 253 246 239 234 231 228 228 227 224 221 219 218 219 219 217 215 214 215 215 213 212 211 210 209 208 205 206 209 213 214 212 212 212 211 211
292 294 296 297 298 298 298 298 297 294 288 282 276 267 254 245 240 237 238 244 253 261 268 275 278 281 284 287 289 291 294 297 299 301 301 301 301 301 300 300 298 295 292 289 286 282 279 277 276 274 271 267 264 257 249 242 236 231 228 226 225 223 221 219 217 217 217 216 215 215 215 214 212 212 210 208 208 207 205 205 207 212 214 212 211 212 212 212
291 293 294 295 295 295 295 296 294 291 285 279 274 264 250 240 237 237 241 249 257 265 272 278 283 286 288 289 291 293 296 298 300 301 301 301 301 301 302 301 298 295 292 289 286 283 282 282 280 278 274 271 273 267 252 243 237 232 229 225 221 220 219 218 216 215 214 214 214 215 216 214 213 214 211 207 207 207 205 204 206 209 212 212 211 211 211 213
289 291 292 292 292 293 293 293 291 288 282 276 271 262 248 239 237 237 243 250 258 266 273 279 284 288 290 291 293 295 298 300 301 301 301 302 302 302 302 301 299 295 292 290 287 284 286 287 284 284 283 279 281 277 259 244 236 231 228 225 221 218 217 217 215 214 213 212 213 215 214 213 212 214 212 208 208 208 205 205 206 208 211 212 210 211 211 212
287 288 289 289 290 290 290 290 288 284 279 274 270 261 248 240 238 239 244 251 258 265 272 278 283 287 289 292 294 296 299 300 301 302 302 302 302 301 301 301 299 295 292 291 288 287 290 290 287 288 292 293 293 292 274 251 237 230 226 225 222 218 216 216 214 213 212 212 213 215 214 212 211 212 212 210 209 209 206 206 208 209 211 212 211 211 211 212
284 285 285 286 287 287 288 287 284 280 275 272 269 262 250 242 241 243 247 253 259 264 270 276 281 285 288 292 294 296 299 300 301 302 302 301 301 301 300 299 296 292 291 290 288 289 293 294 292 292 297 301 303 305 294 265 244 233 226 223 222 220 216 215 214 212 211 210 213 214 213 212 212 211 211 211 210 209 207 206 207 209 212 213 212 212 211 211
281 282 282 283 284 284 284 283 281 277 273 269 267 262 253 246 245 246 249 255 260 265 270 275 280 284 287 291 294 297 299 300 301 302 302 302 301 300 299 297 293 290 290 289 286 289 293 295 297 299 303 306 305 309 305 280 251 236 228 221 220 221 218 215 214 212 210 209 211 214 213 212 212 211 211 211 211 210 208 205 206 209 212 213 213 212 212 212
279 279 280 281 281 282 282 280 278 275 271 267 264 261 255 250 250 251 253 258 263 267 272 276 280 284 287 291 294 296 299 301 302 303 303 302 301 299 296 292 289 288 290 289 286 289 293 295 300 305 311 314 312 312 312 295 260 239 230 222 218 218 218 217 215 213 211 209 210 213 212 211 212 211 211 211 210 210 209 206 206 209 212 213 214 213 212 213
278 278 278 279 279 279 279 278 277 274 270 266 263 261 258 255 255 257 259 263 266 271 274 278 281 284 287 292 294 297 300 302 303 303 303 302 300 297 293 288 287 288 290 290 288 289 293 296 302 308 312 318 318 315 315 308 276 243 231 224 218 215 216 217 216 214 212 210 210 211 212 211 211 210 210 211 210 209 209 207 206 208 211 214 215 214 212 213
276 276 276 276 277 277 277 276 275 274 271 267 263 262 260 259 259 261 264 267 270 273 276 279 282 284 288 291 294 297 301 303 303 302 302 301 298 294 290 288 288 289 290 290 288 290 292 295 301 308 313 318 320 317 316 315 294 253 233 225 219 215 213 213 214 213 211 210 210 211 212 212 211 208 207 209 209 208 207 207 206 207 211 214 216 216 214 213
272 274 274 274 274 275 275 275 274 273 272 269 266 264 263 263 263 264 266 269 271 274 277 279 282 285 287 290 294 298 301 302 302 301 301 299 295 290 288 288 289 291 292 291 289 290 291 295 301 307 312 318 321 320 318 318 306 266 238 226 221 219 215 211 211 212 211 210 209 209 211 212 211 209 207 207 208 207 205 204 205 208 210 213 216 217 215 214
269 270 271 272 272 273 273 273 272 272 271 271 269 267 266 266 267 267 268 270 272 274 276 278 281 284 286 290 294 298 301 300 300 300 299 296 292 288 287 288 290 292 294 292 292 292 292 296 301 306 312 318 322 322 320 320 313 280 245 230 224 221 218 213 211 209 210 210 208 208 210 211 210 208 207 207 206 207 204 200 202 208 210 213 217 217 215 214
267 268 269 270 270 271 271 271 270 270 270 270 270 270 269 269 269 270 270 270 272 274 275 277 280 283 285 289 294 298 299 297 296 297 297 293 289 288 288 290 291 293 295 293 293 294 293 297 303 306 312 318 322 324 322 321 317 292 252 235 226 221 219 216 211 208 209 210 209 207 208 209 209 207 207 207 206 205 203 199 200 205 208 213 219 218 215 214
267 266 267 268 269 269 270 270 270 269 269 269 269 270 270 270 270 271 271 271 272 273 274 276 279 281 284 288 293 297 296 293 293 294 292 290 289 290 290 291 292 294 295 294 294 294 294 298 303 306 311 317 322 325 323 322 320 302 261 238 228 222 218 216 213 210 209 208 208 207 206 207 208 207 206 207 205 204 202 201 202 206 208 210 214 217 217 216
268 267 266 266 267 268 269 270 270 270 270 269 269 269 270 270 270 270 271 271 272 272 273 274 276 279 282 287 292 294 291 289 291 290 289 289 290 291 292 293 294 296 296 295 295 294 294 297 301 304 308 315 320 324 326 325 323 310 272 240 229 221 217 214 212 211 210 209 207 205 203 204 206 206 206 205 205 203 200 199 203 207 209 209 210 213 216 217
267 267 266 265 265 266 267 268 270 271 271 271 271 271 271 272 271 271 270 270 270 270 272 273 275 277 280 285 289 289 286 286 290 289 289 291 292 293 294 295 297 299 298 297 296 295 294 296 299 302 306 312 319 325 328 327 326 317 285 245 228 221 217 213 210 209 211 211 207 202 200 202 204 206 205 204 204 202 200 199 200 202 207 210 210 210 213 216